sat.trackr.live / text

‹ back to catalog

STARLINK-3135

NORAD 49424 · 2021-104S

PAYLOAD ACTIVE UNKNOWN

§ Identity

Operator
Country
US
Launch date
2021-11-13
Launch site
AFETR
Launch vehicle
Mass (kg)
RCS (m²)

Purposes: comms

External: N2YO · Heavens-Above · Gunter

§ Orbital elements

Epoch: 2026-09-20T01:05:32.196192Z

Period
93.79 min
Inclination
53.1610°
Eccentricity
0.0001126
Mean motion
15.35393213 rev/d
Perigee alt
459.0 km
Apogee alt
460.5 km
Semi-major
6,837.9 km
B*
1.2651e-5
RAAN
64.1189°
Arg perigee
83.0988°
Mean anomaly
277.0143°
Rev number
26,813

§ Raw data

STARLINK-31351 49424U 21104S   26263.04551153  .00000061  00000+0  12651-4 0  99992 49424  53.1610  64.1189 0001126  83.0988 277.0143 15.35393213268135

JSON: /api/v1/satellites/49424 · /tle

For live sub-satellite position, see the globe view (requires WebGL).

§ Visibility from observer

Set your observer location to see the next 7 days of passes ≥ 10°. The values pass through the URL so the page stays shareable.

No JS? Fill the form by hand. The geolocation button needs JavaScript.